Home   Weather   Campbellton   Past weeks
Flag for Canada

Past Weather in Campbellton, New Brunswick, Canada — Yesterday and Last 2 Weeks

Now
36 °F

More clouds than sun.


Feels Like: 33 °F
Forecast: N/A
Wind: 3 mph from Southeast

Location: Bathurst Airport

Current Time: Dec 9, 2019 at 4:51:50 pm

Latest Report: Dec 9, 2019 at 4:00 pm


Visibility: 9 mi

Pressure: 30.11 "Hg

Humidity: 81%

Dew Point: 30 °F

Location of CampbelltonLocation

Past Weather in Campbellton — Graph

°F

Campbellton Temperature Yesterday

Maximum temperature yesterday: 25 °F (at 3:00 pm)
Minimum temperature yesterday: 10 °F (at 7:00 am)
Average temperature yesterday: 18 °F

High & Low Weather Summary for the Past Weeks

 TemperatureHumidityPressure
High39 °F (Nov 26, 3:00 pm)100% (Nov 25, 1:00 am)30.32 "Hg (Nov 25, 1:00 am)
Low0 °F (Dec 2, 8:00 am)43% (Dec 1, 2:00 pm)29.15 "Hg (Dec 4, 4:00 am)
Average26 °F78%29.75 "Hg
* Reported Nov 24 3:00 pm — Dec 9 3:00 pm, Campbellton. Weather by CustomWeather, © 2019

Note: Actual official high and low records may vary slightly from our data, if they occured in-between our weather recording intervals... More about our weather records

Campbellton Weather History for the Previous 24 Hours

Scroll right to see more
 ConditionsComfort  
Time TempWeatherWind HumidityBarometerVisibility
3:00 pm
Mon, Dec 9
36 °FMostly cloudy.3 mph81%30.11 "Hg9 mi
2:00 pm36 °FOvercast.6 mph81%30.11 "Hg9 mi
1:00 pm34 °FOvercast.5 mph81%30.12 "Hg9 mi
12:00 pm34 °FOvercast.5 mph81%30.13 "Hg9 mi
11:00 am32 °FMostly cloudy.5 mph87%30.15 "Hg9 mi
10:00 am32 °FMore clouds than sun.7 mph80%30.14 "Hg9 mi
9:00 am32 °FMostly cloudy.8 mph80%30.14 "Hg9 mi
8:00 am30 °FOvercast.7 mph80%30.11 "Hg9 mi
7:56 am30 °FOvercast.7 mph80%30.11 "Hg9 mi
7:08 am30 °FLight snow. Mostly cloudy.7 mph80%30.11 "Hg9 mi
6:39 am28 °FMostly cloudy.8 mph86%30.10 "Hg9 mi
6:24 am30 °FLight snow. Passing clouds.8 mph75%30.09 "HgN/A
5:00 am28 °FMostly cloudy.7 mph74%30.08 "Hg9 mi
4:00 am28 °FOvercast.10 mph74%30.07 "Hg9 mi
3:00 am28 °FPassing clouds.12 mph69%30.07 "Hg9 mi
2:00 am27 °FOvercast.8 mph74%30.07 "Hg9 mi
1:00 am27 °FMostly cloudy.9 mph74%30.10 "Hg9 mi
12:41 am28 °FMostly cloudy.13 mph69%30.10 "Hg9 mi
12:16 am27 °FLight snow. Overcast.10 mph69%30.11 "Hg9 mi
12:00 am25 °FOvercast.14 mph74%30.11 "Hg9 mi
11:00 pm
Sun, Dec 8
23 °FOvercast.9 mph68%30.14 "Hg9 mi
10:00 pm23 °FMostly cloudy.8 mph68%30.17 "Hg9 mi
9:00 pm21 °FPassing clouds.9 mph74%30.20 "Hg9 mi
8:00 pm21 °FMostly cloudy.9 mph74%30.23 "Hg9 mi
7:00 pm21 °FOvercast.10 mph68%30.25 "Hg9 mi
6:00 pm23 °FOvercast.8 mph63%30.26 "Hg9 mi
5:00 pm25 °FPartly cloudy.9 mph59%30.27 "Hg9 mi
4:13 pm25 °FScattered clouds.6 mph54%30.27 "Hg9 mi
Weather by CustomWeather, © 2019

See weather overview

Advertising